Location: Cruquius
(52.3348°N, 4.6319°E)
Time: 20:58:51
(UTC+00:00)

Gbstr 26 Del rocket - Pass Details

Date: 12 May 2021
Orbit: 492 x 1263 km, 51.8° (Epoch: 23 June)

Event Time Altitude Azimuth Distance (km) Brightness Sun altitude
Rises 20:16:14 0° 269° (W) 4,204 8.1 -6.9°
Reaches altitude 10° 20:19:12 10° 269° (W) 3,202 7.4 -7.2°
Maximum altitude 20:27:10 87° 181° (S) 1,140 4.4 -8.1°
Drops below altitude 10° 20:33:58 10° 94° (E) 2,766 5.9 -8.8°
Enters shadow 20:36:07 - 95° (E) 3,515 6.5 -9.1°
